EHI
0 0 0 0 0 0 0 0 0 0 0 0 0 0 0 0 0 0 0 0 0 0 0 0 0 0 0 0 0 0 0 0 0 0 0 0 0 0 0 0 0 0 0 0
0 0 0 0 0 0 0 0 0 0 0 0 0 0 0 0 0 0 0 0 0 0 0 0 0 0 0 0 0 0 0 0 0 0 0 0 0 0 0 0 0 0 0 0
0 0 0 0 0 0 0 0 0 0 0 0 0 0 0 0 0 0 0 0 0 0 0 0 0 0 0 0 0 0 0 0 0 0 0 0 0 0 0 0 0 0 0 0
0 0 0 0 0 0 0 0 0 0 0 0 0 0 0 0 0 0 0 0 0 0 0 1 0 0 0 0 0 0 0 0 0 0 0 0 0 0 0 0 0 0 0 0
0 0 0 0 0 0 0 0 0 0 0 0 0 0 0 0 0 0 0 0 0 0 0 1 1 0 0 0 0 0 0 0 0 0 0 0 0 0 0 0 0 0 0 0
0 0 0 0 0 0 0 0 0 0 0 0 0 0 0 0 0 0 0 0 0 0 1 1 1 1 0 0 0 0 0 0 0 0 0 0 0 0 0 0 0 0 0 0
0 0 0 0 0 0 0 0 0 0 0 0 0 0 0 0 0 0 0 0 0 0 1 2 2 1 0 0 0 0 0 0 0 0 0 0 0 0 0 0 0 0 0 0
0 0 0 0 0 0 0 0 0 0 0 0 0 0 0 0 0 0 0 0 0 0 1 1 1 0 0 0 0 0 0 0 0 0 0 0 0 0 0 0 0 0 0 0
0 0 0 0 0 0 0 0 0 0 0 0 0 0 0 0 0 0 0 0 0 0 0 0 0 0 1 0 0 0 0 0 0 0 0 0 0 0 0 0 0 0 0 0
0 0 0 0 0 0 0 0 0 0 0 0 0 0 0 0 0 0 0 0 0 0 0 0 0 0 0 0 0 0 0 0 0 0 0 0 0 0 0 0 0 0 0 0
0 0 0 0 0 0 0 0 0 0 0 0 0 0 0 0 0 0 0 0 0 0 0 0 0 0 0 0 0 0 0 0 0 0 1 1 0 0 0 0 0 0 0 0
0 0 0 0 0 0 0 0 0 0 0 0 0 0 0 0 0 0 0 0 0 0 0 0 0 0 0 0 0 0 0 0 0 0 1 1 1 0 0 0 0 0 0 0
0 0 0 0 0 0 0 0 0 0 0 0 0 0 0 0 0 0 0 0 0 0 0 0 0 0 0 0 0 0 0 0 0 0 1 1 1 0 0 0 0 0 0 0
0 0 0 0 0 0 0 0 0 0 0 0 0 0 0 0 0 0 0 0 0 0 0 0 0 0 0 0 0 0 0 0 0 0 0 0 0 0 0 0 0 0 0 0
0 0 0 0 0 0 0 0 0 0 0 0 0 0 0 0 0 0 0 0 0 0 0 0 0 0 0 0 0 0 0 0 0 0 0 0 0 0 0 0 0 0 0 0
0 0 0 0 0 0 0 0 0 0 0 0 0 0 0 0 0 0 0 0 0 0 0 0 0 0 0 0 0 0 0 0 0 0 0 0 0 0 0 0 0 0 0 0
0 0 0 0 0 0 0 0 0 0 0 0 0 0 0 0 0 0 0 0 0 0 0 0 0 0 0 0 0 0 0 0 0 0 0 0 0 0 0 0 0 0 0 0
0 0 0 0 0 0 0 0 0 0 0 0 0 0 0 0 0 0 0 0 0 0 0 0 0 0 0 0 0 0 0 0 0 0 0 0 0 0 0 0 0 0 0 0
0 0 0 0 0 0 0 0 0 0 0 0 0 0 0 0 0 0 0 0 0 0 0 0 0 0 0 0 0 0 0 0 0 0 0 0 0 0 0 0 0 0 0 0
0 0 0 0 0 0 0 0 0 0 0 0 0 0 0 0 0 0 0 0 0 0 0 0 0 0 0 0 0 0 0 0 0 0 0 0 0 0 0 0 0 0 0 0
0 0 0 0 0 0 0 0 0 0 0 0 0 0 0 0 0 0 0 0 0 0 0 0 0 0 0 0 0 0 0 0 0 0 0 0 0 0 0 0 0 0 0 0
0 0 0 0 0 0 0 0 0 0 0 0 0 0 0 0 0 0 0 0 0 0 0 0 0 0 0 0 0 0 0 0 0 0 0 0 0 0 0 0 0 0 0 0
0 0 0 0 0 0 0 0 0 0 0 0 0 0 0 0 0 0 0 0 0 0 0 0 0 0 0 0 0 0 0 0 0 0 0 0 0 0 0 0 0 0 0 0
0 0 0 0 0 0 0 0 0 0 0 0 0 0 0 0 0 0 0 0 0 0 0 0 0 0 0 0 0 0 0 0 0 0 0 0 0 0 0 0 0 0 0 0
0 0 0 0 0 0 0 0 0 0 0 0 0 0 0 0 0 0 0 0 0 0 0 0 0 0 0 0 0 0 0 0 0 0 0 0 0 0 0 0 0 0 0 0
0 0 0 0 0 0 0 0 0 0 0 0 0 0 0 0 0 0 0 0 0 0 0 0 0 0 0 0 0 0 0 0 0 0 0 0 0 0 0 0 0 0 0 0
Wind_Speed
3 4 4 4 2 1 4 4 4 3 3 3 4 4 5 7 9 10 10 9 9 8 8 7 7 7 7 7 7 6 6 6 4 3 3 3 3 3 4 4 5 5 5 5
4 3 2 3 4 4 5 5 4 4 3 2 2 3 4 6 9 9 9 9 9 9 9 8 8 8 8 8 7 6 6 5 4 3 3 3 3 3 4 4 5 5 5 5
3 4 4 5 6 6 5 4 4 4 4 3 3 4 5 6 7 8 8 9 9 10 10 10 9 9 8 8 7 5 5 6 5 4 3 4 4 3 3 3 3 4 5 5
2 3 4 5 4 4 3 3 4 5 4 3 3 2 4 6 8 9 9 9 10 11 10 10 10 10 9 8 7 6 6 6 6 5 4 4 3 3 3 3 3 4 5 5
3 4 4 3 2 3 3 4 4 4 3 3 4 4 4 6 8 9 10 11 11 11 11 11 11 10 9 9 7 6 6 6 5 5 5 4 3 3 3 3 4 4 4 5
2 3 2 2 3 4 6 5 4 3 4 4 3 4 3 5 6 7 9 10 11 11 11 11 10 9 8 8 7 7 7 6 5 5 5 5 5 4 5 4 3 3 3 3
5 5 4 4 6 7 7 5 4 5 4 2 2 4 3 2 3 5 8 10 10 11 11 11 11 11 10 9 9 8 7 7 6 6 5 5 5 5 4 4 3 2 3 3
6 6 6 6 5 5 7 6 4 2 1 2 4 4 1 2 3 4 6 8 9 10 11 11 12 11 11 10 9 9 8 7 6 6 5 5 5 3 3 3 3 3 2 3
5 5 6 5 4 5 6 5 3 3 2 3 3 2 2 3 4 6 7 8 9 10 11 11 11 11 11 10 10 9 8 7 7 6 6 5 5 4 4 4 4 3 3 3
4 4 6 6 6 3 3 3 4 4 3 3 2 3 2 5 5 6 7 8 9 10 11 12 11 11 11 10 9 9 8 7 7 6 6 4 5 5 4 4 4 4 4 3
6 5 7 7 7 7 7 6 5 4 4 3 1 2 2 3 4 6 6 7 9 10 11 11 11 11 10 10 10 9 8 8 7 7 7 7 6 5 5 4 4 4 4 4
6 5 5 6 2 2 6 6 7 5 3 4 3 1 4 2 3 5 6 6 8 9 10 11 11 10 10 10 10 9 9 8 7 7 7 7 6 6 5 5 4 4 4 3
7 6 6 7 6 6 7 7 8 6 4 5 5 1 5 3 3 5 6 7 8 9 10 10 11 10 10 10 10 10 9 9 8 8 7 7 7 6 6 5 4 4 4 4
6 6 6 4 1 4 7 8 9 9 6 6 6 4 3 3 4 5 6 7 8 9 10 10 10 10 10 10 10 10 9 9 8 8 8 7 7 6 6 5 5 4 4 4
6 7 6 5 2 4 6 7 10 12 10 8 6 6 6 4 4 5 7 8 9 10 10 11 10 10 10 11 10 10 10 9 9 9 8 7 7 6 6 5 5 4 4 3
6 6 6 6 5 6 7 8 10 11 11 11 10 9 5 4 4 5 7 9 10 11 11 11 11 10 11 11 10 10 10 10 9 9 8 7 7 6 6 5 5 5 4 4
7 7 6 6 4 6 9 9 10 10 9 10 10 8 4 4 5 6 7 10 11 11 11 11 11 11 11 11 11 11 11 10 9 9 8 8 7 7 6 6 6 5 5 4
8 8 5 5 5 9 2 2 6 9 10 10 9 7 6 5 4 5 6 9 10 11 11 11 10 11 10 10 10 10 10 10 10 9 8 8 7 7 6 6 6 5 5 5
8 8 6 6 7 7 5 5 6 7 7 7 8 7 5 3 4 5 6 7 8 9 10 9 10 10 10 10 10 11 10 10 10 9 8 8 8 7 7 7 6 5 5 5
6 8 7 7 8 7 3 4 4 6 6 4 5 5 5 7 5 3 4 6 7 8 8 8 9 10 10 10 11 11 11 10 10 9 8 8 7 7 7 7 6 5 5 5
9 9 11 11 9 7 1 5 6 7 1 2 4 5 6 7 2 3 5 5 6 7 8 9 9 9 9 10 11 11 10 10 9 8 8 8 7 7 7 6 6 5 5 5
10 9 11 10 10 7 5 7 7 1 3 1 3 4 5 3 2 3 5 6 7 8 9 9 9 8 9 10 11 10 9 8 8 8 8 8 8 7 6 6 6 6 6 6
9 8 6 7 5 1 5 4 2 2 1 1 2 3 4 4 4 4 5 6 7 8 8 8 9 9 8 9 9 10 9 9 9 9 9 8 8 7 6 7 7 6 5 4
6 5 6 7 6 4 4 4 4 3 3 2 1 2 4 5 5 5 5 6 7 7 8 8 9 9 8 8 8 8 9 9 10 10 9 8 8 7 6 5 5 5 5 5
5 6 7 9 5 4 5 5 4 3 3 2 2 3 4 5 5 5 5 6 7 7 7 8 8 9 9 9 8 8 9 10 10 9 8 7 7 6 6 5 3 4 4 3
7 8 8 6 5 5 4 2 2 3 3 3 2 3 4 5 5 6 5 6 7 7 8 8 8 8 9 9 8 8 8 9 10 8 7 6 6 5 5 5 4 3 1 3
Wind_Direction
163 176 164 159 181 135 145 145 132 111 134 167 163 164 169 173 187 188 181 176 171 168 162 157 160 160 156 151 150 145 148 144 143 135 132 121 107 97 84 71 64 62 60 57
159 148 132 140 153 162 165 152 136 123 139 185 174 189 183 185 196 196 188 181 178 172 166 163 167 169 165 159 157 157 156 152 144 130 126 120 106 95 81 75 68 58 55 52
141 102 144 161 162 175 177 174 153 143 140 172 203 194 177 181 196 198 200 191 185 183 178 171 171 170 168 167 164 164 162 155 149 145 137 136 129 129 118 99 79 57 55 56
145 141 165 173 173 188 173 157 160 168 192 176 232 213 180 186 193 198 199 194 189 187 185 179 176 173 173 171 167 169 167 159 157 162 157 150 143 128 107 96 96 89 70 66
153 164 178 182 179 195 124 139 166 190 215 216 214 245 167 184 199 202 201 196 191 187 186 183 181 176 175 171 170 170 165 160 160 165 154 164 146 127 119 119 113 97 78 67
155 158 205 147 128 139 134 147 151 192 228 226 198 242 191 183 205 200 194 193 189 185 183 182 177 174 174 169 168 169 166 159 163 169 167 162 144 141 134 132 121 110 94 79
171 168 163 165 151 154 179 193 195 198 205 192 151 241 226 167 196 199 191 186 183 180 179 178 174 173 174 173 172 171 169 168 171 172 169 160 154 155 146 141 131 119 102 91
185 172 179 193 208 191 197 233 264 262 201 152 188 238 149 122 174 187 186 179 175 178 179 177 176 176 175 175 177 177 173 171 170 172 167 165 156 160 140 136 126 120 102 91
196 158 155 186 203 208 197 223 292 294 262 251 209 212 197 160 175 175 177 174 177 178 178 178 176 176 177 177 178 179 176 173 172 171 166 163 157 150 143 141 127 117 110 106
217 177 158 158 174 191 262 203 214 243 251 237 213 217 193 169 177 180 180 178 177 178 177 176 176 177 177 174 175 176 178 176 175 167 161 157 157 149 145 139 132 126 117 116
219 203 166 183 208 192 182 199 226 245 273 279 252 115 90 177 182 187 184 181 177 176 174 173 174 176 176 172 173 175 176 174 170 166 162 159 154 150 149 143 135 135 131 132
211 229 196 189 159 256 228 225 223 239 227 252 279 82 97 188 186 187 185 179 175 171 170 169 170 173 175 176 175 175 174 172 169 168 164 157 152 152 154 145 141 142 138 138
187 220 200 184 182 189 216 221 227 241 251 242 249 165 122 164 174 183 182 174 171 168 166 165 167 173 176 176 175 175 174 172 167 164 160 158 158 156 153 147 147 148 146 141
215 230 240 236 215 193 210 209 213 222 235 239 242 254 211 204 194 189 185 180 173 171 169 168 169 174 175 176 174 174 170 168 164 162 162 161 157 156 157 154 152 151 147 144
223 237 233 250 245 223 233 225 215 225 239 253 259 260 259 244 216 199 187 181 176 175 175 174 174 174 174 174 173 173 168 167 166 164 165 163 157 156 159 157 154 148 144 145
220 238 227 225 217 227 242 238 227 230 238 245 256 264 267 245 214 197 190 184 184 181 181 179 177 175 176 175 172 169 169 168 168 168 164 156 159 157 157 158 154 147 151 157
203 222 232 234 206 236 241 229 222 220 224 233 244 252 231 217 208 202 195 192 192 187 183 181 179 179 180 177 173 173 171 167 169 167 161 163 163 160 161 160 154 157 161 160
214 218 232 245 227 242 249 182 228 233 240 240 248 251 236 231 220 212 203 196 192 187 184 183 180 178 177 170 170 171 166 168 170 170 167 167 166 162 161 163 161 164 159 156
225 216 225 238 245 255 246 212 205 221 243 235 235 234 222 190 197 196 191 196 192 186 183 179 178 173 169 166 167 166 167 169 172 172 172 171 167 164 163 165 166 166 161 159
200 218 229 231 241 247 228 154 186 226 231 195 215 214 189 184 211 170 165 184 182 174 169 166 168 166 166 164 166 168 169 170 173 172 172 168 167 166 168 167 166 162 161 162
188 200 221 231 240 249 179 136 178 220 204 128 202 198 187 206 257 106 147 159 162 161 158 158 161 163 164 163 166 170 169 173 169 164 162 162 166 170 168 163 163 161 160 163
210 208 216 223 233 233 139 168 207 295 28 166 194 192 195 194 135 127 141 147 150 152 154 158 158 158 160 165 170 168 169 164 158 157 160 163 165 164 163 160 163 165 161 164
222 228 227 228 240 50 173 208 259 320 281 241 214 190 179 171 164 150 150 150 151 152 154 157 156 153 155 164 172 168 163 160 158 159 162 163 163 163 163 164 166 166 169 175
210 217 225 233 236 227 220 236 247 247 257 261 226 187 179 178 167 159 155 154 152 151 154 157 157 155 154 161 171 165 158 162 162 164 165 164 165 164 164 169 173 174 177 181
211 198 221 235 237 233 226 225 234 245 243 225 195 180 180 176 171 166 161 159 156 154 156 158 161 160 158 161 164 157 159 162 163 165 165 164 166 164 163 166 173 184 183 189
205 211 223 238 231 242 236 239 237 237 227 209 188 172 171 175 172 168 164 160 159 157 157 158 160 161 159 159 159 156 161 167 166 166 164 163 164 164 166 164 154 89 107 113